Regional Weather Roundup
Issued by NWS

Home | Current Version | Previous Version | Graphics & Text | Print | Product List | Glossary On
Versions: 1 2 3 4 5 6 7 8 9 10 11 12 13 14 15 16 17 18 19 20 21 22 23 24 25 26 27 28 29 30 31 32 33 34 35 36 37 38 39 40 41 42 43 44 45 46 47 48 49 50
508
ASUS43 KMPX 220101
RWRMN
WEATHER ROUNDUP FOR MINNESOTA
NATIONAL WEATHER SERVICE TWIN CITIES/CHANHASSEN MN
800 PM CDT FRI JUL 21 2017


NOTE: "FAIR" INDICATES FEW OR NO CLOUDS BELOW 12,000 FEET WITH NO
SIGNIFICANT WEATHER AND/OR OBSTRUCTIONS TO VISIBILITY. N/A MEANS
CURRENT SKY AND/OR WEATHER CONDITIONS ARE NOT AVAILABLE.

MNZ060>063-068>070-220200-
   Twin Cities Metro

CITY           SKY/WX    TMP DP  RH WIND       PRES   REMARKS
TWIN CITIES    MOCLDY    80  67  64 SE7       29.81R
ST PAUL        CLEAR     79  70  74 SE6       29.82R
CRYSTAL        MOCLDY    80  66  62 S5        29.80R
BLAINE         MOCLDY    81  70  69 SE3       29.82R
LAKEVILLE      CLEAR     75  70  83 CALM      29.82R
EDEN PRAIRIE   CLEAR     81  69  67 CALM      29.80S
SOUTH ST PAUL  CLEAR     80  66  62 SE3       29.81R
LAKE ELMO      FAIR      77  70  78 E3        29.85R
$$
MNZ001>005-007-008-013>017-022>024-027-028-220200-
   Northwest Minnesota

CITY           SKY/WX    TMP DP  RH WIND       PRES   REMARKS
BEMIDJI        CLOUDY    67  65  91 SE5       29.81F
HALLOCK        MOSUNNY   73  64  73 E9        29.77R
ROSEAU         CLOUDY    72  64  78 E9        29.80S
WARROAD        CLOUDY    72  64  78 E13       29.81S
CROOKSTON      CLOUDY    75  73  94 E6        29.77R
FOSSTON        CLOUDY    66  66 100 S10       29.81R
DETROIT LAKES  CLOUDY    72  68  88 CALM      29.81R
MOORHEAD       PTSUNNY   81  61  50 SW6       29.75R
PARK RAPIDS    CLOUDY    68  66  93 NE7       29.83R
MAHNOMEN       DRIZZLE   71  64  79 E6        29.81F
$$
MNZ006-009>011-018-025>026-220200-
   North Central Minnesota

CITY           SKY/WX    TMP DP  RH WIND       PRES   REMARKS
BAUDETTE       CLOUDY    72  62  71 E9        29.80F
FLAG ISLAND    CLOUDY    72  55  56 E3        29.80F
INTL FALLS     CLOUDY    69  62  78 SE5       29.82F
BIG FORK       CLOUDY    64  61  88 CALM      29.81F
LONGVILLE      CLOUDY    66  64  94 CALM      29.81F THUNDER
GRAND RAPIDS   LGT RAIN  65  63  93 VRB7G18   29.80F
CRANE LAKE     CLOUDY    64  63  94 CALM      29.84F
ORR            DRIZZLE   63  59  88 CALM      29.78F
COOK           CLOUDY    64  59  82 SE8       29.82F
WALKER         FAIR      66  64  91 CALM      29.81F
$$
MNZ012-019>021-037-220200-
   Northeast Minnesota

CITY           SKY/WX    TMP DP  RH WIND       PRES   REMARKS
DULUTH         TSTM      63  63 100 S17G25    29.90R VSB 1
ELY            LGT RAIN  66  61  82 E7        29.85F
HIBBING        TSTM      62  62 100 VRB3      29.89R FOG
EVELETH        TSTM      65  54  67 CALM      29.90R
DULUTH HARBOR  TSTM      64  63  94 N20       29.91R
TWO HARBORS    TSTM      66  61  82 W9        29.90R
GRAND MARAIS     N/A     63  52  67 NE6       29.90R
G MARAIS ARPRT CLEAR     64  54  68 CALM      29.96R
$$
MNZ029>031-032-039>041-046>048-054>057-064-220200-
   West Central Minnesota

CITY           SKY/WX    TMP DP  RH WIND       PRES   REMARKS
FERGUS FALLS   TSTM      70  70 100 SE9G44    29.80R VSB<1/4
WHEATON        LGT RAIN  81  73  78 CALM      29.79R
MORRIS         CLEAR     82  73  74 S7        29.76S
ALEXANDRIA     MOCLDY    80  73  79 CALM      29.83R
ELBOW LAKE     MOCLDY    80  75  84 E6        29.80R
GLENWOOD       CLEAR     79  72  78 S6        29.81S
APPLETON       CLEAR     84  72  65 SE8       29.75F
BENSON         CLEAR     82  73  74 S5        29.78F
ORTONVILLE     CLEAR     84  73  70 E8        29.75F HX  91
MADISON        CLEAR     84  73  70 S7        29.76R HX  91
WILLMAR        FAIR      81  73  78 S5        29.80F
$$
MNZ033>034-036-042>043-049>051-058-059-220200-
   Central Minnesota

CITY           SKY/WX    TMP DP  RH WIND       PRES   REMARKS
ST CLOUD       CLOUDY    78  72  81 S5        29.81S
SAUK CENTRE    MOCLDY    76  72  85 S5        29.81R
PAYNESVILLE    PTCLDY    79  71  76 S6        29.81F
AITKIN         TSTM      63  61  94 S5        29.87R
PINE RIVER     TSTM      64  64 100 CALM      29.86F
BRAINERD       TSTM      65  65 100 NE8       29.88R VSB 1/2
STAPLES        CLOUDY    66  63  88 CALM      29.86R
LONG PRAIRIE   CLOUDY    77  72  83 E3        29.84R
LITTLE FALLS   MOCLDY    79  70  73 CALM      29.83S
LITCHFIELD     PTCLDY    81  72  74 CALM      29.82S
BUFFALO        CLOUDY    80  69  69 CALM      29.82S
MAPLE LAKE     MOCLDY    80  72  76 CALM      29.82F
HUTCHINSON     CLEAR     79  72  78 CALM      29.82S
$$
MNZ037-044-045-052-053-220200-
   East Central Minnesota

CITY           SKY/WX    TMP DP  RH WIND       PRES   REMARKS
PRINCETON      CLOUDY    79  72  78 S3        29.82F
MORA           PTCLDY    77  66  69 S3        29.85S
CAMBRIDGE      CLOUDY    81  66  61 CALM      29.81F
RUSH CITY      MOCLDY    76  70  81 SE3       29.83F
MOOSE LAKE     PTCLDY    73  68  83 CALM      29.84R
HINCKLEY       MOCLDY    77  72  83 SE6       29.84R
CLOQUET        TSTM      68  61  77 NE16G24   29.89R
MCGREGOR       CLOUDY    64  63  94 NW10G22   29.89R THUNDER
$$
MNZ071>073-080-081-089-090-097-098-220200-
   Southwest Minnesota

CITY           SKY/WX    TMP DP  RH WIND       PRES   REMARKS
MONTEVIDEO     CLEAR     82  72  69 S3        29.77S
GRANITE FALLS  CLEAR     82  74  75 SE6       29.79S
CANBY          PTCLDY    84  71  65 CALM      29.78R
MARSHALL       CLEAR     81  73  76 S8        29.77F
REDWOOD FALLS  CLEAR     80  69  69 SE7       29.77F
OLIVIA         CLEAR     79  70  73 S5        29.79F
PIPESTONE      CLEAR     81  73  78 SE7       29.78F
WINDOM         CLEAR     79  70  73 E3        29.79S
WORTHINGTON    CLEAR     78  73  84 SE6       29.79F
JACKSON        CLEAR     77  70  78 CALM      29.79F
SLAYTON        CLEAR     78  71  78 SE6       29.80F
$$
MNZ065>067-074>077-082>085-091>093-220200-
   South Central Minnesota

CITY           SKY/WX    TMP DP  RH WIND       PRES   REMARKS
MANKATO        CLEAR     77  68  73 E5        29.80S
NEW ULM        CLEAR     77  66  69 SE3       29.79R
ST JAMES       CLEAR     75  70  83 CALM      29.79F
FAIRMONT       CLOUDY    76  72  87 SE5       29.78F
GLENCOE        CLEAR     80  73  78 CALM      29.80S
FARIBAULT      PTCLDY    77  68  73 NE3       29.82R
OWATONNA       CLEAR     79  70  73 E5        29.81R
WASECA         PTCLDY    77  68  73 SE5       29.81S
ALBERT LEA     PTCLDY    75  70  83 SE8       29.79F
$$
MNZ078>079-086>088-094>096-220200-
   Southeast Minnesota

CITY           SKY/WX    TMP DP  RH WIND       PRES   REMARKS
ROCHESTER      CLOUDY    72  69  90 SE10      29.82F
RED WING       CLEAR     77  66  69 E6        29.82R
STANTON        PTCLDY    78  67  69 CALM      29.81R
DODGE CENTER   CLOUDY    73  66  78 E5        29.82S
WINONA         CLOUDY    73  70  88 SE8       29.83S
AUSTIN         CLOUDY    73  70  88 SE5       29.80F
PRESTON        CLOUDY    71  66  84 SE5       29.82F
$$
ABBREVIATIONS USED IN REMARKS
   TC - TEMPERATURES IN CELSIUS
  WCI - WIND CHILL INDEX
   HX - HEAT INDEX
  VSB - VISIBILITY
$$




USA.gov is the U.S. government's official web portal to all federal, state and local government web resources and services.